This is the latest recevied weather packets stored in our database for station/object N5COP-13. If no packets are shown the sender has not sent any weather packets the latest 10 day(s).
| Time | Temp. | Humidity | Pressure | Rain* | Wind** | Luminosity | Snow |
|---|---|---|---|---|---|---|---|
| 1777893129 | 12.78° C | 67% | 1009.7 hPa | 0 mm | - | 0 W/m² | - |
| 1777892825 | 12.78° C | 67% | 1009.9 hPa | 0 mm | - | 0 W/m² | - |
| 1777892521 | 12.22° C | 67% | 1009.8 hPa | 0 mm | - | 0 W/m² | - |
| 1777892217 | 12.22° C | 68% | 1009.9 hPa | 0 mm | - | 0 W/m² | - |
| 1777891914 | 11.67° C | 68% | 1010.1 hPa | 0 mm | - | 0 W/m² | - |
| 1777891611 | 11.67° C | 68% | 1010.2 hPa | 0 mm | - | 0 W/m² | - |
| 1777891308 | 11.67° C | 67% | 1009.9 hPa | 0 mm | - | 0 W/m² | - |
| 1777891008 | 11.67° C | 67% | 1010.1 hPa | 0 mm | - | 0 W/m² | - |
| 1777890702 | 12.22° C | 66% | 1010.2 hPa | 0 mm | - | 0 W/m² | - |
| 1777890398 | 12.22° C | 66% | 1009.9 hPa | 0 mm | - | 0 W/m² | - |
| 1777890094 | 12.78° C | 66% | 1010.1 hPa | 0 mm | - | 0 W/m² | - |
| 1777889792 | 12.78° C | 65% | 1010.3 hPa | 0 mm | - | 0 W/m² | - |
| 1777889489 | 12.78° C | 65% | 1010.2 hPa | 0 mm | - | 0 W/m² | - |
| 1777889187 | 12.78° C | 65% | 1010.2 hPa | 0 mm | - | 0 W/m² | - |
| 1777888885 | 12.78° C | 65% | 1010.1 hPa | 0 mm | - | 0 W/m² | - |
| 1777888581 | 12.78° C | 65% | 1009.9 hPa | 0 mm | - | 0 W/m² | - |
| 1777888277 | 13.33° C | 65% | 1010.3 hPa | 0 mm | - | 0 W/m² | - |
| 1777887974 | 13.33° C | 64% | 1010.2 hPa | 0 mm | - | 0 W/m² | - |
| 1777887671 | 13.33° C | 64% | 1010.2 hPa | 0 mm | - | 0 W/m² | - |
| 1777887367 | 13.33° C | 63% | 1010.4 hPa | 0 mm | - | 0 W/m² | - |
| 1777887063 | 13.89° C | 63% | 1010.4 hPa | 0 mm | - | 0 W/m² | - |
| 1777886759 | 13.89° C | 62% | 1010.4 hPa | 0 mm | - | 0 W/m² | - |
| 1777886456 | 13.89° C | 62% | 1010.4 hPa | 0 mm | - | 0 W/m² | - |
| 1777886154 | 13.89° C | 62% | 1010.3 hPa | 0 mm | - | 0 W/m² | - |
| 1777885851 | 13.89° C | 62% | 1010.3 hPa | 0 mm | - | 0 W/m² | - |
* Rain latest hour (hover to see other rain measurements)
** Current wind speed in m/s (hover to see current wind gust speed)